ARIANE 1 DEB, 26532

Orbit data source: Space-Track

ARIANE 1 DEB, 26532 is space debris in HEO originally from a launch on Mon, 24 Dec 1979 UTC launched from the French Guiana (FRGUI). Debris objects in space refer to the collection of defunct objects orbiting the Earth. Examples of debris include non-operational satellites, rocket bodies, and fragments generated from explosions, collisions, or faulty payload assembly.

Loading next visibility...
Identifier
26532, 1979-104N
Orbit
HEO
Country
Flag of FRFR
Related business
Manufacturer
Unknown
Mission
Spacecraft
Bus & Motor
Unknown
Mass
Unknown
Launch date (UTC)
1979-12-24 (46 years ago)
Launch vehicle
Unknown
Launch site
French Guiana (FRGUI)
Object type
Payload
Rocket body
Debris
Shape & HBR
Unknown shape, 0.1 m
Radar Cross Section
Medium (>0.1 m² and <1 m²)

Expand to show TLE details & history
Last TLE update: 1 year ago

TLE from 1 year ago
0 ARIANE 1 DEB
1 26532U 79104N   25021.27536750 -.00001372  00000-0 -38277-1 0  9997
2 26532  15.8870 319.8974 5829809 241.8215 289.5301  3.77551192351304
Epoch: 2025-01-21T06:36Z
TLE epoch observation values (Epoch: 2025-01-21T06:36:31.751Z)
Latitude
15.26826°
Longitude
-153.22091°
Altitude
13,317.845 km
Speed
4.195 km/s
True Right ascension
04h 27m 10s
True Declination
15° 14' 12"
Sunlit
Object was in daylight at epoch
Visualization orbit readout
Latitude
Unknown
Longitude
Unknown
Altitude
Unknown
Speed
Unknown
Apparent Right ascension
Unknown
Apparent Declination
Unknown
Sunlit
N/A
Visualization observer readout
Local Sidereal Time
19:07:19
Azimuth
Unknown
Elevation
Unknown
Doppler factor
Unknown
Orbital elements
Apogee altitude
21,206.346 km
Perigee altitude
888.695 km
Semi-major axis
17,425.658 km
Eccentricity
0.58298
Inclination
15.887°
RAAN
319.8974°
Arg. of periapsis
241.8215°
True anomaly
224.40699°
Mean anomaly
289.5301°
Eccentric anomaly
256.98573°
Mean motion
0.94354 °/min
Orbital period
381.54 mins
BSTAR
-0.038277
Loading maneuver chart data...
Computing Atmospheric mass density...
Loading historical data...
Loading historical data...
Loading historical data...
Loading historical data...
Loading historical data...
Loading historical data...
Loading historical data...

Documentation

Showing up to 5 results
|